Defiance, OH

7:44 PM EDT on August 29, 2016 (GMT -0400)
Defiance Memorial

Weather History for KDFI - June, 2012

Change the Weather History Date:

Tuesday, June 5, 2012

  Actual Average Record
Temperature  
Mean Temperature 59 °F -  
Max Temperature 68 °F 76 °F 91 °F (1944)
Min Temperature 52 °F 52 °F 37 °F (1945)
Degree Days  
Heating Degree Days 6    
Growing Degree Days 9 (Base 50)    
Moisture  
Dew Point 47 °F    
Average Humidity 64    
Maximum Humidity 86    
Minimum Humidity 45    
Precipitation  
Precipitation 0.00 in - - ()
Sea Level Pressure  
Sea Level Pressure 29.97 in    
Wind  
Wind Speed 5 mph (NE)    
Max Wind Speed 13 mph    
Max Gust Speed 18 mph    
Visibility 10 miles    
Events      
Averages and records for this station are not official NWS values.
T = Trace of Precipitation, MM = Missing Value Source: NWS Daily Summary

Daily Weather History Graph

Daily Weather History Graph

Search for Another Location

Airport or City:

Trip Planner

Search our weather history database for the weather conditions in past years. The results will help you decide how hot, cold, wet, or windy it might be!

Date:

Astronomy

Jun. 05, 2012 Rise Set
Actual Time 6:05 AM EDT 9:07 PM EDT
Civil Twilight 5:31 AM EDT 9:41 PM EDT
Nautical Twilight 4:49 AM EDT 10:23 PM EDT
Astronomical Twilight 3:59 AM EDT 11:14 PM EDT
Moon 10:31 PM EDT (6/5) 7:16 AM EDT (6/5)
Length of Visible Light 16h 09m
Length of Day
15h 02m
Full, 98% of the Moon is Illuminated
Jun 5
Full
Jun 11
Last Quarter
Jun 19
New
Jun 26
First Quarter
Jul 3
Full

Hourly Weather History & Observations

Time (EDT) Temp. Dew Point Humidity Pressure Visibility Wind Dir Wind Speed Gust Speed Precip Events Conditions
12:53 AM 60.1 °F 48.9 °F 67% 29.91 in 10.0 mi NE 3.5 mph - N/A   Clear
1:53 AM 57.0 °F 50.0 °F 77% 29.91 in 10.0 mi Calm Calm - N/A   Clear
3:53 AM 53.1 °F 48.0 °F 83% 29.91 in 10.0 mi Calm Calm - N/A   Clear
4:53 AM 53.1 °F 48.0 °F 83% 29.91 in 10.0 mi Calm Calm - N/A   Clear
5:53 AM 52.0 °F 48.0 °F 86% 29.93 in 10.0 mi North 6.9 mph - N/A   Clear
6:53 AM 53.1 °F 48.0 °F 83% 29.95 in 10.0 mi North 6.9 mph - N/A   Clear
7:18 AM 53.6 °F 48.2 °F 82% 29.96 in 10.0 mi North 6.9 mph - N/A   Mostly Cloudy
7:53 AM 55.0 °F 50.0 °F 83% 29.96 in 10.0 mi North 8.1 mph - N/A   Overcast
8:08 AM 55.4 °F 50.0 °F 82% 29.97 in 10.0 mi North 9.2 mph - N/A   Overcast
8:53 AM 57.9 °F 51.1 °F 78% 29.97 in 10.0 mi NE 12.7 mph - N/A   Overcast
9:53 AM 60.1 °F 51.1 °F 72% 29.99 in 10.0 mi NE 10.4 mph 17.3 mph N/A   Overcast
10:53 AM 63.0 °F 48.9 °F 60% 29.99 in 10.0 mi NE 10.4 mph - N/A   Overcast
11:01 AM 64.4 °F 48.2 °F 56% 29.99 in 10.0 mi NE 11.5 mph 18.4 mph N/A   Overcast
11:13 AM 64.4 °F 46.4 °F 52% 29.99 in 10.0 mi ENE 8.1 mph - N/A   Overcast
11:53 AM 64.0 °F 46.0 °F 52% 30.00 in 10.0 mi ENE 10.4 mph 18.4 mph N/A   Overcast
12:53 PM 64.9 °F 45.0 °F 48% 30.00 in 10.0 mi NNE 10.4 mph - N/A   Overcast
1:53 PM 66.9 °F 46.0 °F 47% 29.99 in 10.0 mi ENE 11.5 mph - N/A   Overcast
2:53 PM 64.9 °F 45.0 °F 48% 29.99 in 10.0 mi NE 11.5 mph - N/A   Overcast
3:53 PM 64.9 °F 46.0 °F 50% 29.99 in 10.0 mi ENE 5.8 mph - N/A   Overcast
4:53 PM 66.9 °F 45.0 °F 45% 29.98 in 10.0 mi Variable 6.9 mph - N/A   Mostly Cloudy
5:53 PM 66.0 °F 45.0 °F 47% 29.99 in 10.0 mi East 8.1 mph - N/A   Mostly Cloudy
6:53 PM 64.9 °F 44.1 °F 47% 29.98 in 10.0 mi East 5.8 mph - N/A   Clear
7:53 PM 64.0 °F 44.1 °F 48% 29.98 in 10.0 mi ENE 5.8 mph - N/A   Clear
8:53 PM 63.0 °F 45.0 °F 52% 29.99 in 10.0 mi ENE 4.6 mph - N/A   Clear
9:53 PM 57.9 °F 45.0 °F 62% 30.00 in 10.0 mi Calm Calm - N/A   Clear
10:53 PM 55.0 °F 46.0 °F 72% 30.01 in 10.0 mi Calm Calm - N/A   Clear
11:53 PM 53.1 °F 46.0 °F 77% 30.02 in 10.0 mi Calm Calm - N/A   Clear